Hatteras, NC

2:15 AM EDT on March 26, 2017 (GMT -0400)
Mitchell

Weather History for KHSE - August, 2012

Change the Weather History Date:

Thursday, August 9, 2012

  Actual Average Record
Temperature  
Mean Temperature 80 °F 79 °F  
Max Temperature 86 °F 85 °F 91 °F (1960)
Min Temperature 74 °F 73 °F 62 °F (1957)
Degree Days  
Heating Degree Days 0 0  
Month to date heating degree days 0 0  
Since 1 June heating degree days 0 3  
Since 1 July heating degree days 0 0  
Cooling Degree Days 15 14  
Month to date cooling degree days 125 126  
Year to date cooling degree days 1306 1014  
Since 1 June cooling degree days 981 871  
Growing Degree Days 28 (Base 50)    
Moisture  
Dew Point 74 °F    
Average Humidity 82    
Maximum Humidity 94    
Minimum Humidity 70    
Precipitation  
Precipitation T in 0.21 in 3.70 in (1976)
Month to date precipitation 1.27 1.85  
Year to date precipitation 32.17 32.11  
Snow  
Snow 0.00 in - - ()
Month to date snowfall 0.0  
Since 1 July snowfall 0.0  
Snow Depth 0.00 in    
Sea Level Pressure  
Sea Level Pressure 29.97 in    
Wind  
Wind Speed 7 mph (SW)    
Max Wind Speed 15 mph    
Max Gust Speed 22 mph    
Visibility 10 miles    
Events      
T = Trace of Precipitation, MM = Missing Value Source: NWS Daily Summary

Daily Weather History Graph

Daily Weather History Graph

Search for Another Location

Airport or City:

Trip Planner

Search our weather history database for the weather conditions in past years. The results will help you decide how hot, cold, wet, or windy it might be!

Date:

Astronomy

Aug. 09, 2012 Rise Set
Actual Time 6:17 AM EDT 7:57 PM EDT
Civil Twilight 5:50 AM EDT 8:24 PM EDT
Nautical Twilight 5:17 AM EDT 8:57 PM EDT
Astronomical Twilight 4:42 AM EDT 9:31 PM EDT
Moon No Moon Rise 1:37 PM EDT (8/9)
Length of Visible Light 14h 33m
Length of Day
13h 39m
Waning Gibbous, 51% of the Moon is Illuminated
Aug 9
Waning Gibbous
Aug 9
Last Quarter
Aug 17
New
Aug 24
First Quarter
Aug 31
Full

Hourly Weather History & Observations

Time (EDT) Temp. Heat Index Dew Point Humidity Pressure Visibility Wind Dir Wind Speed Gust Speed Precip Events Conditions
12:51 AM 77.0 °F - 73.0 °F 88% 29.96 in 10.0 mi WSW 3.5 mph - N/A   Clear
1:51 AM 73.9 °F - 71.1 °F 91% 29.97 in 10.0 mi Calm Calm - N/A   Clear
2:51 AM 75.0 °F - 72.0 °F 90% 29.99 in 10.0 mi West 4.6 mph - N/A   Clear
3:51 AM 77.0 °F - 73.9 °F 90% 29.98 in 10.0 mi WSW 6.9 mph - N/A   Clear
4:51 AM 77.0 °F - 73.9 °F 90% 29.97 in 10.0 mi West 5.8 mph - N/A   Clear
5:51 AM 75.9 °F - 73.0 °F 91% 29.99 in 10.0 mi West 4.6 mph - N/A   Clear
6:51 AM 77.0 °F - 73.9 °F 90% 30.01 in 8.0 mi West 4.6 mph - N/A   Clear
7:51 AM 78.1 °F - 73.9 °F 87% 30.01 in 10.0 mi West 3.5 mph - N/A   Clear
8:51 AM 81.0 °F 86.7 °F 75.0 °F 82% 30.01 in 10.0 mi Variable 5.8 mph - N/A   Partly Cloudy
9:51 AM 82.0 °F 87.9 °F 73.9 °F 76% 30.00 in 10.0 mi West 5.8 mph - N/A   Clear
10:51 AM 81.0 °F 86.7 °F 75.0 °F 82% 30.01 in 10.0 mi SSW 4.6 mph - N/A   Partly Cloudy
12:51 PM 82.9 °F 90.2 °F 75.0 °F 77% 30.00 in 10.0 mi SSW 5.8 mph - N/A   Clear
1:51 PM 84.0 °F 91.2 °F 73.9 °F 72% 30.00 in 10.0 mi SSW 8.1 mph - N/A   Clear
2:51 PM 84.9 °F 92.1 °F 73.9 °F 69% 29.99 in 10.0 mi South 6.9 mph - N/A   Clear
3:51 PM 84.9 °F 92.1 °F 73.9 °F 69% 29.96 in 10.0 mi South 6.9 mph - N/A   Partly Cloudy
4:51 PM 84.0 °F 90.2 °F 73.0 °F 69% 29.95 in 10.0 mi SSW 8.1 mph - N/A   Clear
5:51 PM 82.9 °F 88.8 °F 73.0 °F 72% 29.94 in 10.0 mi SSW 8.1 mph - N/A   Clear
6:51 PM 82.0 °F 87.9 °F 73.9 °F 76% 29.93 in 10.0 mi South 8.1 mph - N/A   Clear
7:51 PM 81.0 °F 86.2 °F 73.9 °F 79% 29.94 in 10.0 mi SSW 4.6 mph - N/A   Partly Cloudy
8:51 PM 81.0 °F 86.7 °F 75.0 °F 82% 29.95 in 10.0 mi South 8.1 mph - N/A   Clear
9:51 PM 81.0 °F 87.3 °F 75.9 °F 85% 29.96 in 10.0 mi South 6.9 mph - 0.00 in   Partly Cloudy
10:51 PM 81.0 °F 87.3 °F 75.9 °F 85% 29.95 in 10.0 mi SSW 13.8 mph - N/A   Partly Cloudy
11:51 PM 81.0 °F 87.3 °F 75.9 °F 85% 29.94 in 10.0 mi SSW 11.5 mph - N/A   Clear